Regional Weather Roundup
Issued by NWS

Home | Current Version | Previous Version | Text Only | Print | Product List | Glossary Off
Versions: 1 2 3 4 5 6 7 8 9 10 11 12 13 14 15 16 17 18 19 20 21 22 23 24 25 26 27 28 29 30 31 32 33 34 35 36 37 38 39 40 41 42 43 44 45 46 47 48 49 50

000
ASUS43 KOAX 192310
RWRNE

WEATHER ROUNDUP FOR NEBRASKA
NATIONAL WEATHER SERVICE OMAHA NE
600 PM CDT TUE SEP 19 2017

NOTES: SATELLITE DATA IS BEING USED TO AUGMENT CLOUD COVER ABOVE
       12000 FEET.
       "FAIR" INDICATES FEW OR NO CLOUDS BELOW 12,000 FEET WITH NO
       SIGNIFICANT WEATHER AND/OR OBSTRUCTIONS TO VISIBILITY.


NEZ001>004-019>022-054>056-200000-
NEBRASKA PANHANDLE

CITY           SKY/WX    TMP DP  RH WIND       PRES   REMARKS
SCOTTSBLUFF    SUNNY     65  36  34 NW28G41   29.70R
ALLIANCE       SUNNY     66  39  37 NW31G41   29.68R
CHADRON        CLOUDY    65  36  34 NW20G29   29.68R
GORDON         FAIR      68  41  37 NW31G39   29.63R
KIMBALL        SUNNY     65  38  36 NW32G41   29.71R
SIDNEY         MOSUNNY   71  42  35 N36G49    29.66R
$$

NEZ057>060-069>072-079>082-200000-
SOUTHWEST NEBRASKA

CITY           SKY/WX    TMP DP  RH WIND       PRES   REMARKS
NORTH PLATTE   CLOUDY    88  45  22 S10       29.46F
IMPERIAL       CLOUDY    87  27  11 W7        29.51R
LEXINGTON      CLOUDY    91  47  21 SW8       29.46S
MCCOOK         CLOUDY    94  29  10 S21G31    29.46S
OGALLALA       CLOUDY    85  37  18 W3        29.51S
$$

NEZ005>010-023>029-035>040-094-200000-
NORTH CENTRAL NEBRASKA

CITY           SKY/WX    TMP DP  RH WIND       PRES   REMARKS
VALENTINE      MOSUNNY   85  60  42 SW8       29.49S
AINSWORTH      SUNNY     82  60  47 SW9       29.50R
BROKEN BOW     CLOUDY    88  61  40 SE12      29.48S
O`NEILL        CLOUDY    84  67  56 S18       29.49S
ORD            CLOUDY    86  62  44 SE13      29.45F
THEDFORD       CLOUDY    84  56  38 SW6       29.50S
$$

NEZ041-046>049-061>064-073>077-083>087-200000-
SOUTH CENTRAL NEBRASKA

CITY           SKY/WX    TMP DP  RH WIND       PRES   REMARKS
GRAND ISLAND   CLOUDY    87  67  51 S21G29    29.48F HX  90
AURORA         CLOUDY    87  65  47 S16G26    29.49F
HASTINGS       CLOUDY    90  61  37 S15G25    29.49F HX  90
HEBRON         CLOUDY    92  65  40 S14G28    29.54F HX  94
HOLDREGE       CLOUDY    92  38  15 S14G22    29.46F
KEARNEY        CLOUDY    89  59  36 S13       29.46F
YORK           CLOUDY    88  66  48 S16G23    29.52F HX  90
$$

NEZ011>018-030>034-042>045-200000-
NORTHEAST NEBRASKA

CITY           SKY/WX    TMP DP  RH WIND       PRES   REMARKS
NORFOLK        CLOUDY    85  68  56 SE18      29.49F
ALBION         CLOUDY    84  70  63 SE12      29.49F
BLAIR          SUNNY     85  68  57 SE23G33   29.58F
COLUMBUS       CLOUDY    87  69  54 SE18G25   29.51F HX  91
FREMONT        CLOUDY    86  67  53 SE15G26   29.55F
TEKAMAH        CLOUDY    84  66  54 SE17G28   29.55F
WAYNE          MOSUNNY   83  71  66 SE17G24   29.52F
$$

NEZ050>053-065>068-078-088>093-200000-
SOUTHEAST NEBRASKA

CITY           SKY/WX    TMP DP  RH WIND       PRES   REMARKS
LINCOLN        SUNNY     89  67  47 SE26G36   29.55F HX  92
OMAHA EPPLEY   PTSUNNY   87  67  51 S24G37    29.59F HX  90
BEATRICE       SUNNY     91  69  48 S21G29    29.56F HX  95
FALLS CITY     SUNNY     87  68  52 S23G33    29.63S HX  90
NEBRASKA CITY  SUNNY     86  71  60 S22       29.62F HX  92
PLATTSMOUTH    SUNNY     86  70  57 SE22G28   29.61S HX  90
$$

NEZ044-045-051>053-067-200000-
OMAHA AREA

CITY           SKY/WX    TMP DP  RH WIND       PRES   REMARKS
OMAHA EPPLEY   PTSUNNY   87  67  51 S24G37    29.59F HX  90
BLAIR          SUNNY     85  68  57 SE23G33   29.58F
FREMONT        CLOUDY    86  67  53 SE15G26   29.55F
MILLARD        SUNNY     88  71  56 SE24G30   29.58F HX  93
OFFUTT AFB     SUNNY     86  68  53 SE24G30   29.59F
PLATTSMOUTH    SUNNY     86  70  57 SE22G28   29.61S HX  90
WAHOO          FAIR      87  67  51 SE17G29   29.55F HX  90
$$



USA.gov is the U.S. government's official web portal to all federal, state and local government web resources and services.